TimeAEDT,TemperatureF,Dew PointF,Humidity,Sea Level PressureIn,VisibilityMPH,Wind Direction,Wind SpeedMPH,Gust SpeedMPH,PrecipitationIn,Events,Conditions,WindDirDegrees,DateUTC
12:00 AM,55,48,70,29.96,,Calm,Calm,,,,,,2013-10-09 13:00:00
12:00 AM,55.4,48.2,77,29.95,6.2,Calm,Calm,-,N/A,,Unknown,0,2013-10-09 13:00:00
12:30 AM,53.6,48.2,82,29.95,6.2,Calm,Calm,-,N/A,,Unknown,0,2013-10-09 13:30:00
1:00 AM,53.6,46.4,77,29.92,6.2,NNW,2.3,-,N/A,,Unknown,340,2013-10-09 14:00:00
1:30 AM,53.6,46.4,77,29.92,6.2,Calm,Calm,-,N/A,,Unknown,0,2013-10-09 14:30:00
2:00 AM,52,47,76,29.92,,Calm,Calm,,,,,,2013-10-09 15:00:00
2:00 AM,51.8,46.4,82,29.92,6.2,Calm,Calm,-,N/A,,Unknown,0,2013-10-09 15:00:00
2:30 AM,50.0,46.4,87,29.92,6.2,Calm,Calm,-,N/A,,Unknown,0,2013-10-09 15:30:00
3:00 AM,51,45,72,29.92,,Calm,Calm,,,,,,2013-10-09 16:00:00
3:00 AM,51.8,44.6,76,29.89,6.2,Calm,Calm,-,N/A,,Unknown,0,2013-10-09 16:00:00
3:30 AM,50.0,44.6,82,29.89,6.2,WNW,3.5,-,N/A,,Unknown,300,2013-10-09 16:30:00
4:00 AM,55.4,42.8,63,29.89,6.2,NNW,8.1,-,N/A,,Unknown,330,2013-10-09 17:00:00
4:30 AM,55.4,41.0,58,29.89,6.2,NW,8.1,-,N/A,,Unknown,310,2013-10-09 17:30:00
5:00 AM,50,43,70,29.89,,NW,5.8,,,,,310,2013-10-09 18:00:00
5:00 AM,50.0,42.8,76,29.89,6.2,NW,5.8,-,N/A,,Unknown,310,2013-10-09 18:00:00
5:30 AM,55.4,41.0,58,29.89,6.2,NNW,8.1,-,N/A,,Unknown,330,2013-10-09 18:30:00
6:00 AM,58,40,39,29.91,25,NW,11.5,,,,Partly Cloudy,320,2013-10-09 19:00:00
6:00 AM,59.0,39.2,48,29.89,-9999.0,NW,11.5,-,N/A,,Clear,320,2013-10-09 19:00:00
6:30 AM,59.0,39.2,48,29.89,-9999.0,NW,11.5,-,N/A,,Clear,310,2013-10-09 19:30:00
7:00 AM,60.8,39.2,45,29.89,-9999.0,NNW,10.4,-,N/A,,Clear,330,2013-10-09 20:00:00
7:30 AM,64.4,39.2,40,29.89,-9999.0,NW,11.5,-,N/A,,Clear,320,2013-10-09 20:30:00
8:00 AM,67,39,24,29.91,,NW,10.4,,,,,310,2013-10-09 21:00:00
8:00 AM,68.0,39.2,35,29.89,-9999.0,NW,10.4,-,N/A,,Clear,310,2013-10-09 21:00:00
8:30 AM,71.6,37.4,29,29.89,-9999.0,WNW,16.1,-,N/A,,Clear,300,2013-10-09 21:30:00
9:00 AM,73,37,17,29.91,25,NW,15.0,,,,Partly Cloudy,310,2013-10-09 22:00:00
9:00 AM,73.4,37.4,27,29.89,-9999.0,NW,15.0,-,N/A,,Clear,310,2013-10-09 22:00:00
9:30 AM,-9999,-9999,N/A,0.00,-9999.0,NW,10.4,-,N/A,,Unknown,320,2013-10-09 22:30:00
10:00 AM,75.2,41.0,29,29.86,-9999.0,NW,5.8,-,N/A,,Clear,310,2013-10-09 23:00:00
10:30 AM,78.8,42.8,28,29.86,-9999.0,SSW,2.3,-,N/A,,Clear,200,2013-10-09 23:30:00
11:00 AM,86,33,7,29.84,,NW,12.7,,,,,320,2013-10-10 00:00:00
11:00 AM,86.0,32.0,14,29.83,-9999.0,NW,12.7,-,N/A,,Clear,320,2013-10-10 00:00:00
11:12 AM,89.6,24.8,10,29.83,-9999.0,NW,24.2,-,N/A,,Clear,310,2013-10-10 00:12:00
11:30 AM,91.4,23.0,8,29.80,-9999.0,NW,21.9,-,N/A,,Clear,310,2013-10-10 00:30:00
11:32 AM,89.6,23.0,9,29.80,-9999.0,NW,20.7,32.2,N/A,,Clear,310,2013-10-10 00:32:00
12:00 PM,93,20,4,29.79,25,WNW,25.3,,,,Partly Cloudy,290,2013-10-10 01:00:00
12:00 PM,93.2,21.2,7,29.77,-9999.0,WNW,25.3,-,N/A,,Clear,290,2013-10-10 01:00:00
12:30 PM,93.2,17.6,6,29.77,-9999.0,WNW,24.2,-,N/A,,Clear,300,2013-10-10 01:30:00
12:42 PM,93.2,19.4,7,29.74,-9999.0,WNW,21.9,33.4,N/A,,Clear,300,2013-10-10 01:42:00
1:00 PM,93.2,8.6,4,29.74,-9999.0,WNW,26.5,-,N/A,,Clear,300,2013-10-10 02:00:00
1:21 PM,95.0,10.4,4,29.74,-9999.0,WNW,26.5,38.0,N/A,,Clear,300,2013-10-10 02:21:00
1:30 PM,95.0,12.2,5,29.74,-9999.0,WNW,28.8,-,N/A,,Clear,300,2013-10-10 02:30:00
1:41 PM,93.2,17.6,6,29.71,-9999.0,WNW,27.6,41.4,N/A,,Clear,300,2013-10-10 02:41:00
2:00 PM,94,11,4,29.73,,WNW,24.2,,,,,300,2013-10-10 03:00:00
2:00 PM,93.2,12.2,5,29.71,-9999.0,WNW,24.2,35.7,N/A,,Clear,300,2013-10-10 03:00:00
2:30 PM,93.2,15.8,6,29.71,-9999.0,NW,29.9,-,N/A,,Clear,310,2013-10-10 03:30:00
2:45 PM,93.2,19.4,7,29.68,-9999.0,NW,28.8,40.3,N/A,,Clear,310,2013-10-10 03:45:00
3:00 PM,93,22,4,29.71,25,NW,29.9,,,,Partly Cloudy,310,2013-10-10 04:00:00
3:00 PM,93.2,23.0,8,29.68,-9999.0,NW,29.9,41.4,N/A,,Clear,310,2013-10-10 04:00:00
3:30 PM,95.0,26.6,9,29.68,-9999.0,NW,20.7,-,N/A,,Clear,310,2013-10-10 04:30:00
4:00 PM,93.2,28.4,10,29.65,-9999.0,NW,26.5,-,N/A,,Clear,310,2013-10-10 05:00:00
4:30 PM,93.2,26.6,9,29.65,-9999.0,NW,21.9,-,N/A,,Clear,310,2013-10-10 05:30:00
4:48 PM,93.2,24.8,9,29.65,-9999.0,NW,18.4,32.2,N/A,,Clear,310,2013-10-10 05:48:00
5:00 PM,93,26,4,29.65,,NW,25.3,,,,,310,2013-10-10 06:00:00
5:00 PM,93.2,24.8,9,29.65,-9999.0,NW,25.3,-,N/A,,Clear,310,2013-10-10 06:00:00
5:23 PM,93.2,28.4,10,29.65,-9999.0,NW,21.9,33.4,N/A,,Clear,320,2013-10-10 06:23:00
5:30 PM,91.4,26.6,10,29.65,-9999.0,NW,23.0,-,N/A,,Clear,310,2013-10-10 06:30:00
6:00 PM,91,28,5,29.65,,NW,21.9,,,,,320,2013-10-10 07:00:00
6:00 PM,91.4,28.4,10,29.65,-9999.0,NW,21.9,-,N/A,,Clear,320,2013-10-10 07:00:00
6:30 PM,89.6,30.2,12,29.65,-9999.0,NNW,15.0,-,N/A,,Clear,330,2013-10-10 07:30:00
7:00 PM,86.0,32.0,14,29.65,-9999.0,NNW,11.5,-,N/A,,Clear,330,2013-10-10 08:00:00
7:30 PM,86.0,33.8,15,29.65,-9999.0,NNW,9.2,-,N/A,,Clear,340,2013-10-10 08:30:00
8:00 PM,84,35,9,29.67,,NNW,8.1,,,,,340,2013-10-10 09:00:00
8:00 PM,84.2,35.6,18,29.65,-9999.0,NNW,8.1,-,N/A,,Clear,340,2013-10-10 09:00:00
8:30 PM,82.4,37.4,20,29.65,-9999.0,North,6.9,-,N/A,,Clear,350,2013-10-10 09:30:00
9:00 PM,76,42,19,29.67,,North,5.8,,,,,10,2013-10-10 10:00:00
9:00 PM,75.2,42.8,31,29.65,-9999.0,North,5.8,-,N/A,,Clear,10,2013-10-10 10:00:00
9:30 PM,71.6,44.6,38,29.65,-9999.0,NE,3.5,-,N/A,,Clear,50,2013-10-10 10:30:00
10:00 PM,68.0,46.4,46,29.65,-9999.0,East,4.6,-,N/A,,Clear,80,2013-10-10 11:00:00
10:30 PM,64.4,48.2,56,29.62,6.2,Calm,Calm,-,N/A,,Unknown,0,2013-10-10 11:30:00
11:00 PM,64,46,41,29.64,,Calm,Calm,,,,,,2013-10-10 12:00:00
11:00 PM,64.4,46.4,52,29.62,6.2,Calm,Calm,-,N/A,,Unknown,0,2013-10-10 12:00:00
11:30 PM,64.4,46.4,52,29.62,6.2,NE,2.3,-,N/A,,Unknown,50,2013-10-10 12:30:00